Time,TemperatureF,DewpointF,PressureIn,WindDirection,WindDirectionDegrees,WindSpeedMPH,WindSpeedGustMPH,Humidity,HourlyPrecipIn,Conditions,Clouds,dailyrainin,SolarRadiationWatts/m^2,SoftwareType,DateUTC
2013-10-07 00:05:00,58.6,53.1,29.96,WNW,298,0.0,5.0,82,0.00,,,0.00,0,Wunderground v.1.15,2013-10-07 04:05:00,
2013-10-07 00:10:00,59.2,53.0,29.96,WNW,299,0.0,5.0,80,0.00,,,0.00,0,Wunderground v.1.15,2013-10-07 04:10:00,
2013-10-07 00:15:00,59.8,52.9,29.96,West,281,0.0,5.0,78,0.00,,,0.00,0,Wunderground v.1.15,2013-10-07 04:15:00,
2013-10-07 00:20:00,60.4,53.2,29.97,WNW,282,0.0,5.0,77,0.00,,,0.00,0,Wunderground v.1.15,2013-10-07 04:20:00,
2013-10-07 00:25:00,60.9,53.3,29.97,WNW,283,0.0,5.0,76,0.00,,,0.00,0,Wunderground v.1.15,2013-10-07 04:25:00,
2013-10-07 00:35:00,61.3,52.9,29.97,West,275,0.0,5.0,74,0.00,,,0.00,0,Wunderground v.1.15,2013-10-07 04:35:00,
2013-10-07 00:45:00,61.1,53.1,29.97,WNW,302,0.0,5.0,75,0.00,,,0.00,0,Wunderground v.1.15,2013-10-07 04:45:00,
2013-10-07 00:50:00,60.9,52.9,29.97,WNW,302,0.0,5.0,75,0.00,,,0.00,0,Wunderground v.1.15,2013-10-07 04:50:00,
2013-10-07 00:55:00,60.8,52.8,29.97,NW,306,0.0,5.0,75,0.00,,,0.00,0,Wunderground v.1.15,2013-10-07 04:55:00,
2013-10-07 01:00:00,60.5,52.5,29.97,NW,306,0.0,0.0,75,0.00,,,0.00,0,Wunderground v.1.15,2013-10-07 05:00:00,
2013-10-07 01:10:00,60.2,52.6,29.97,NW,306,0.0,0.0,76,0.00,,,0.00,0,Wunderground v.1.15,2013-10-07 05:10:00,
2013-10-07 01:20:00,59.8,52.9,29.97,NW,306,0.0,0.0,78,0.00,,,0.00,0,Wunderground v.1.15,2013-10-07 05:20:00,
2013-10-07 01:25:00,59.6,52.4,29.97,NW,306,0.0,0.0,77,0.00,,,0.00,0,Wunderground v.1.15,2013-10-07 05:25:00,
2013-10-07 01:35:00,59.3,53.8,29.97,NW,306,0.0,0.0,82,0.00,,,0.00,0,Wunderground v.1.15,2013-10-07 05:35:00,
2013-10-07 01:45:00,59.0,52.1,29.97,NW,306,0.0,0.0,78,0.00,,,0.00,0,Wunderground v.1.15,2013-10-07 05:45:00,
2013-10-07 01:55:00,58.9,54.1,29.97,NW,306,0.0,0.0,84,0.00,,,0.00,0,Wunderground v.1.15,2013-10-07 05:55:00,
2013-10-07 02:05:00,58.3,53.5,29.97,NW,306,0.0,0.0,84,0.00,,,0.00,0,Wunderground v.1.15,2013-10-07 06:05:00,
2013-10-07 02:10:00,58.0,53.5,29.97,NW,306,0.0,0.0,85,0.00,,,0.00,0,Wunderground v.1.15,2013-10-07 06:10:00,
2013-10-07 02:20:00,57.6,52.8,29.97,NW,306,0.0,0.0,84,0.00,,,0.00,0,Wunderground v.1.15,2013-10-07 06:20:00,
2013-10-07 02:25:00,57.5,53.3,29.98,NW,306,0.0,0.0,86,0.00,,,0.00,0,Wunderground v.1.15,2013-10-07 06:25:00,
2013-10-07 02:35:00,57.2,53.0,29.98,NW,306,0.0,0.0,86,0.00,,,0.00,0,Wunderground v.1.15,2013-10-07 06:35:00,
2013-10-07 02:45:00,56.8,52.7,29.98,NW,306,0.0,0.0,86,0.00,,,0.00,0,Wunderground v.1.15,2013-10-07 06:45:00,
2013-10-07 02:50:00,56.6,52.1,29.98,NW,306,0.0,0.0,85,0.00,,,0.00,0,Wunderground v.1.15,2013-10-07 06:50:00,
2013-10-07 02:55:00,56.3,52.2,29.98,NW,306,0.0,0.0,86,0.00,,,0.00,0,Wunderground v.1.15,2013-10-07 06:55:00,
2013-10-07 03:00:00,56.2,52.1,29.98,NW,306,0.0,0.0,86,0.00,,,0.00,0,Wunderground v.1.15,2013-10-07 07:00:00,
2013-10-07 03:10:00,55.8,51.7,29.98,NW,306,0.0,0.0,86,0.00,,,0.00,0,Wunderground v.1.15,2013-10-07 07:10:00,
2013-10-07 03:20:00,55.6,51.8,29.98,NW,306,0.0,0.0,87,0.00,,,0.00,0,Wunderground v.1.15,2013-10-07 07:20:00,
2013-10-07 03:30:00,55.4,52.2,29.98,NW,306,0.0,0.0,89,0.00,,,0.00,0,Wunderground v.1.15,2013-10-07 07:30:00,
2013-10-07 03:35:00,55.4,52.5,29.98,NW,306,0.0,0.0,90,0.00,,,0.00,0,Wunderground v.1.15,2013-10-07 07:35:00,
2013-10-07 03:45:00,55.4,52.5,29.98,NW,306,0.0,0.0,90,0.00,,,0.00,0,Wunderground v.1.15,2013-10-07 07:45:00,
2013-10-07 03:55:00,55.3,52.4,29.98,NW,306,0.0,0.0,90,0.00,,,0.00,0,Wunderground v.1.15,2013-10-07 07:55:00,
2013-10-07 04:05:00,55.1,52.5,29.98,NW,306,0.0,0.0,91,0.00,,,0.00,0,Wunderground v.1.15,2013-10-07 08:05:00,
2013-10-07 04:15:00,54.8,51.9,29.98,NW,306,0.0,0.0,90,0.00,,,0.00,0,Wunderground v.1.15,2013-10-07 08:15:00,
2013-10-07 04:20:00,54.6,51.7,29.98,NW,306,0.0,0.0,90,0.00,,,0.00,0,Wunderground v.1.15,2013-10-07 08:20:00,
2013-10-07 04:30:00,54.3,51.4,29.98,NW,306,0.0,0.0,90,0.00,,,0.00,0,Wunderground v.1.15,2013-10-07 08:30:00,
2013-10-07 04:35:00,54.2,51.0,29.98,NW,306,0.0,0.0,89,0.00,,,0.00,0,Wunderground v.1.15,2013-10-07 08:35:00,
2013-10-07 04:45:00,54.0,50.8,29.98,NW,306,0.0,0.0,89,0.00,,,0.00,0,Wunderground v.1.15,2013-10-07 08:45:00,
2013-10-07 04:50:00,53.9,50.7,29.98,NW,306,0.0,0.0,89,0.00,,,0.00,0,Wunderground v.1.15,2013-10-07 08:50:00,
2013-10-07 05:00:00,53.7,50.8,29.98,NW,306,0.0,0.0,90,0.00,,,0.00,0,Wunderground v.1.15,2013-10-07 09:00:00,
2013-10-07 05:05:00,53.6,50.7,29.98,NW,306,0.0,0.0,90,0.00,,,0.00,0,Wunderground v.1.15,2013-10-07 09:05:00,
2013-10-07 05:10:00,53.5,50.6,29.98,NW,306,0.0,0.0,90,0.00,,,0.00,0,Wunderground v.1.15,2013-10-07 09:10:00,
2013-10-07 05:20:00,53.3,50.7,29.98,NW,306,0.0,0.0,91,0.00,,,0.00,0,Wunderground v.1.15,2013-10-07 09:20:00,
2013-10-07 05:25:00,53.2,50.6,29.98,NW,306,0.0,0.0,91,0.00,,,0.00,0,Wunderground v.1.15,2013-10-07 09:25:00,
2013-10-07 05:35:00,53.3,51.0,29.99,NW,306,0.0,0.0,92,0.00,,,0.00,0,Wunderground v.1.15,2013-10-07 09:35:00,
2013-10-07 05:45:00,53.1,50.8,29.99,NW,306,0.0,0.0,92,0.00,,,0.00,0,Wunderground v.1.15,2013-10-07 09:45:00,
2013-10-07 05:50:00,53.1,51.1,29.99,NW,306,0.0,0.0,93,0.00,,,0.00,0,Wunderground v.1.15,2013-10-07 09:50:00,
2013-10-07 06:00:00,52.8,50.5,29.99,NW,306,0.0,0.0,92,0.00,,,0.00,0,Wunderground v.1.15,2013-10-07 10:00:00,
2013-10-07 06:10:00,52.6,50.6,29.99,NW,306,0.0,0.0,93,0.00,,,0.00,0,Wunderground v.1.15,2013-10-07 10:10:00,
2013-10-07 06:20:00,52.4,50.4,29.99,NW,306,0.0,0.0,93,0.00,,,0.00,0,Wunderground v.1.15,2013-10-07 10:20:00,
2013-10-07 06:25:00,52.4,50.4,30.00,NW,306,0.0,0.0,93,0.00,,,0.00,0,Wunderground v.1.15,2013-10-07 10:25:00,
2013-10-07 06:35:00,52.4,50.7,30.00,NW,306,0.0,0.0,94,0.00,,,0.00,0,Wunderground v.1.15,2013-10-07 10:35:00,
2013-10-07 06:45:00,52.3,50.6,30.00,NW,306,0.0,0.0,94,0.00,,,0.00,0,Wunderground v.1.15,2013-10-07 10:45:00,
2013-10-07 06:55:00,52.2,50.5,30.00,NW,306,0.0,0.0,94,0.00,,,0.00,0,Wunderground v.1.15,2013-10-07 10:55:00,
2013-10-07 07:00:00,52.1,50.4,30.00,NW,306,0.0,0.0,94,0.00,,,0.00,0,Wunderground v.1.15,2013-10-07 11:00:00,
2013-10-07 07:10:00,52.1,50.4,30.00,NW,306,0.0,0.0,94,0.00,,,0.00,0,Wunderground v.1.15,2013-10-07 11:10:00,
2013-10-07 07:15:00,52.0,50.3,30.00,NW,306,0.0,0.0,94,0.00,,,0.00,0,Wunderground v.1.15,2013-10-07 11:15:00,
2013-10-07 07:25:00,52.0,50.3,30.00,NW,306,0.0,0.0,94,0.00,,,0.00,0,Wunderground v.1.15,2013-10-07 11:25:00,
2013-10-07 07:35:00,52.1,50.4,30.00,NW,306,0.0,0.0,94,0.00,,,0.00,0,Wunderground v.1.15,2013-10-07 11:35:00,
2013-10-07 07:45:00,52.1,50.4,30.00,NW,306,0.0,0.0,94,0.00,,,0.00,0,Wunderground v.1.15,2013-10-07 11:45:00,
2013-10-07 07:50:00,52.0,50.3,30.00,NW,306,0.0,0.0,94,0.00,,,0.00,0,Wunderground v.1.15,2013-10-07 11:50:00,
2013-10-07 08:00:00,51.9,50.2,30.00,NW,306,0.0,0.0,94,0.00,,,0.00,0,Wunderground v.1.15,2013-10-07 12:00:00,
2013-10-07 08:10:00,51.9,50.2,30.00,NW,306,0.0,0.0,94,0.00,,,0.00,0,Wunderground v.1.15,2013-10-07 12:10:00,
2013-10-07 08:20:00,52.0,50.6,30.01,NW,306,0.0,0.0,95,0.00,,,0.00,7,Wunderground v.1.15,2013-10-07 12:20:00,
2013-10-07 08:30:00,52.3,50.6,30.01,NW,306,0.0,0.0,94,0.00,,,0.00,9,Wunderground v.1.15,2013-10-07 12:30:00,
2013-10-07 08:35:00,52.3,50.6,30.01,NW,306,0.0,0.0,94,0.00,,,0.00,11,Wunderground v.1.15,2013-10-07 12:35:00,
2013-10-07 08:45:00,52.6,50.9,30.01,NW,306,0.0,0.0,94,0.00,,,0.00,14,Wunderground v.1.15,2013-10-07 12:45:00,
2013-10-07 08:55:00,52.7,50.7,30.02,NW,306,0.0,0.0,93,0.00,,,0.00,16,Wunderground v.1.15,2013-10-07 12:55:00,
2013-10-07 09:05:00,53.1,51.1,30.02,NW,306,0.0,0.0,93,0.00,,,0.00,19,Wunderground v.1.15,2013-10-07 13:05:00,
2013-10-07 09:15:00,53.8,51.5,30.03,NW,306,0.0,1.0,92,0.00,,,0.00,23,Wunderground v.1.15,2013-10-07 13:15:00,
2013-10-07 09:25:00,54.5,51.9,30.03,NW,306,0.0,0.0,91,0.00,,,0.00,33,Wunderground v.1.15,2013-10-07 13:25:00,
2013-10-07 09:35:00,55.4,52.2,30.04,NW,306,0.0,0.0,89,0.00,,,0.00,26,Wunderground v.1.15,2013-10-07 13:35:00,
2013-10-07 09:40:00,55.8,52.0,30.04,NW,306,0.0,1.0,87,0.00,,,0.00,30,Wunderground v.1.15,2013-10-07 13:40:00,
2013-10-07 09:45:00,56.3,51.8,30.04,NW,311,0.0,1.0,85,0.00,,,0.00,42,Wunderground v.1.15,2013-10-07 13:45:00,
2013-10-07 09:55:00,57.1,52.0,30.04,NW,314,0.0,0.0,83,0.00,,,0.00,32,Wunderground v.1.15,2013-10-07 13:55:00,
2013-10-07 10:00:00,57.5,51.7,30.05,NW,304,0.0,0.0,81,0.00,,,0.00,33,Wunderground v.1.15,2013-10-07 14:00:00,
2013-10-07 10:05:00,57.8,52.0,30.05,NW,324,0.0,0.0,81,0.00,,,0.00,32,Wunderground v.1.15,2013-10-07 14:05:00,
2013-10-07 10:15:00,58.5,52.4,30.05,NW,304,0.0,0.0,80,0.00,,,0.00,35,Wunderground v.1.15,2013-10-07 14:15:00,
2013-10-07 10:25:00,59.3,52.4,30.05,WSW,256,0.0,0.0,78,0.00,,,0.00,37,Wunderground v.1.15,2013-10-07 14:25:00,
2013-10-07 10:35:00,59.9,53.4,30.05,West,265,0.0,0.0,79,0.00,,,0.00,56,Wunderground v.1.15,2013-10-07 14:35:00,
2013-10-07 10:45:00,60.8,51.7,30.05,WNW,293,0.0,0.0,72,0.00,,,0.00,469,Wunderground v.1.15,2013-10-07 14:45:00,
2013-10-07 10:50:00,61.5,52.0,30.05,North,5,0.0,0.0,71,0.00,,,0.00,487,Wunderground v.1.15,2013-10-07 14:50:00,
2013-10-07 11:00:00,63.0,53.1,30.05,NNW,327,0.0,0.0,70,0.00,,,0.00,65,Wunderground v.1.15,2013-10-07 15:00:00,
2013-10-07 11:10:00,64.3,53.1,30.05,WSW,257,0.0,0.0,67,0.00,,,0.00,545,Wunderground v.1.15,2013-10-07 15:10:00,
2013-10-07 11:20:00,65.7,54.0,30.05,West,264,0.0,0.0,66,0.00,,,0.00,571,Wunderground v.1.15,2013-10-07 15:20:00,
2013-10-07 11:25:00,66.3,53.8,30.05,NW,312,0.0,0.0,64,0.00,,,0.00,584,Wunderground v.1.15,2013-10-07 15:25:00,
2013-10-07 11:30:00,66.9,52.6,30.05,East,100,0.0,0.0,60,0.00,,,0.00,599,Wunderground v.1.15,2013-10-07 15:30:00,
2013-10-07 11:35:00,67.0,52.7,30.05,SW,232,1.0,2.0,60,0.00,,,0.00,612,Wunderground v.1.15,2013-10-07 15:35:00,
2013-10-07 11:45:00,68.4,53.0,30.05,WNW,291,1.0,3.0,58,0.00,,,0.00,631,Wunderground v.1.15,2013-10-07 15:45:00,
2013-10-07 11:50:00,69.0,52.6,30.05,SSW,192,1.0,1.0,56,0.00,,,0.00,643,Wunderground v.1.15,2013-10-07 15:50:00,
2013-10-07 12:00:00,69.7,54.3,30.05,ENE,76,0.0,0.0,58,0.00,,,0.00,666,Wunderground v.1.15,2013-10-07 16:00:00,
2013-10-07 12:10:00,70.2,52.3,30.05,WSW,239,0.0,1.0,53,0.00,,,0.00,687,Wunderground v.1.15,2013-10-07 16:10:00,
2013-10-07 12:20:00,71.2,53.7,30.05,NW,308,0.0,0.0,54,0.00,,,0.00,705,Wunderground v.1.15,2013-10-07 16:20:00,
2013-10-07 12:30:00,71.5,50.8,30.05,NE,38,1.0,1.0,48,0.00,,,0.00,722,Wunderground v.1.15,2013-10-07 16:30:00,
2013-10-07 12:35:00,71.1,51.0,30.05,SW,222,1.0,1.0,49,0.00,,,0.00,731,Wunderground v.1.15,2013-10-07 16:35:00,
2013-10-07 12:40:00,70.8,52.8,30.05,NNE,33,0.0,2.0,53,0.00,,,0.00,738,Wunderground v.1.15,2013-10-07 16:40:00,
2013-10-07 12:50:00,71.5,53.5,30.05,West,281,1.0,1.0,53,0.00,,,0.00,751,Wunderground v.1.15,2013-10-07 16:50:00,
2013-10-07 13:00:00,73.1,53.4,30.05,NE,41,0.0,0.0,50,0.00,,,0.00,765,Wunderground v.1.15,2013-10-07 17:00:00,
2013-10-07 13:10:00,73.6,52.7,30.04,WSW,256,0.0,5.0,48,0.00,,,0.00,773,Wunderground v.1.15,2013-10-07 17:10:00,
2013-10-07 13:15:00,73.9,51.8,30.04,South,169,0.0,5.0,46,0.00,,,0.00,779,Wunderground v.1.15,2013-10-07 17:15:00,
2013-10-07 13:25:00,74.4,51.7,30.04,WSW,254,1.0,5.0,45,0.00,,,0.00,784,Wunderground v.1.15,2013-10-07 17:25:00,
2013-10-07 13:35:00,73.3,54.6,30.04,WNW,299,1.0,5.0,52,0.00,,,0.00,782,Wunderground v.1.15,2013-10-07 17:35:00,
2013-10-07 13:40:00,74.5,53.5,30.03,NNW,331,1.0,1.0,48,0.00,,,0.00,789,Wunderground v.1.15,2013-10-07 17:40:00,
2013-10-07 13:50:00,74.0,53.1,30.03,West,259,1.0,5.0,48,0.00,,,0.00,793,Wunderground v.1.15,2013-10-07 17:50:00,
2013-10-07 13:55:00,74.4,52.9,30.03,SW,233,1.0,5.0,47,0.00,,,0.00,795,Wunderground v.1.15,2013-10-07 17:55:00,
2013-10-07 14:05:00,74.7,51.9,30.02,East,80,1.0,5.0,45,0.00,,,0.00,796,Wunderground v.1.15,2013-10-07 18:05:00,
2013-10-07 14:10:00,75.3,54.3,30.02,NW,324,1.0,5.0,48,0.00,,,0.00,793,Wunderground v.1.15,2013-10-07 18:10:00,
2013-10-07 14:20:00,75.3,51.3,30.02,WSW,255,1.0,5.0,43,0.00,,,0.00,789,Wunderground v.1.15,2013-10-07 18:20:00,
2013-10-07 14:30:00,74.5,52.4,30.02,NW,304,2.0,5.0,46,0.00,,,0.00,782,Wunderground v.1.15,2013-10-07 18:30:00,
2013-10-07 14:35:00,75.1,53.5,30.01,North,349,1.0,5.0,47,0.00,,,0.00,779,Wunderground v.1.15,2013-10-07 18:35:00,
2013-10-07 14:45:00,76.0,53.1,30.01,SSW,200,1.0,5.0,45,0.00,,,0.00,773,Wunderground v.1.15,2013-10-07 18:45:00,
2013-10-07 14:55:00,75.7,52.8,30.00,West,274,1.0,5.0,45,0.00,,,0.00,763,Wunderground v.1.15,2013-10-07 18:55:00,
2013-10-07 15:05:00,75.6,52.1,30.00,NW,325,1.0,5.0,44,0.00,,,0.00,752,Wunderground v.1.15,2013-10-07 19:05:00,
2013-10-07 15:10:00,75.9,53.0,30.00,NW,313,1.0,5.0,45,0.00,,,0.00,745,Wunderground v.1.15,2013-10-07 19:10:00,
2013-10-07 15:15:00,76.0,53.1,30.00,SSW,194,1.0,5.0,45,0.00,,,0.00,737,Wunderground v.1.15,2013-10-07 19:15:00,
2013-10-07 15:20:00,75.6,53.4,29.99,WSW,248,1.0,5.0,46,0.00,,,0.00,731,Wunderground v.1.15,2013-10-07 19:20:00,
2013-10-07 15:25:00,75.8,52.9,29.99,NE,55,1.0,5.0,45,0.00,,,0.00,724,Wunderground v.1.15,2013-10-07 19:25:00,
2013-10-07 15:30:00,76.0,53.7,29.99,WNW,286,1.0,5.0,46,0.00,,,0.00,717,Wunderground v.1.15,2013-10-07 19:30:00,
2013-10-07 15:35:00,76.0,53.1,29.99,West,261,1.0,5.0,45,0.00,,,0.00,707,Wunderground v.1.15,2013-10-07 19:35:00,
2013-10-07 15:40:00,76.0,51.9,29.99,NW,309,1.0,5.0,43,0.00,,,0.00,698,Wunderground v.1.15,2013-10-07 19:40:00,
2013-10-07 15:45:00,76.0,52.5,29.99,SSE,157,1.0,5.0,44,0.00,,,0.00,689,Wunderground v.1.15,2013-10-07 19:45:00,
2013-10-07 15:55:00,75.5,53.3,29.99,WNW,300,1.0,5.0,46,0.00,,,0.00,671,Wunderground v.1.15,2013-10-07 19:55:00,
2013-10-07 16:00:00,75.4,53.2,29.99,South,178,1.0,1.0,46,0.00,,,0.00,656,Wunderground v.1.15,2013-10-07 20:00:00,
2013-10-07 16:10:00,76.0,52.5,29.99,NNW,327,1.0,5.0,44,0.00,,,0.00,636,Wunderground v.1.15,2013-10-07 20:10:00,
2013-10-07 16:15:00,75.8,53.5,29.98,WNW,289,1.0,5.0,46,0.00,,,0.00,624,Wunderground v.1.15,2013-10-07 20:15:00,
2013-10-07 16:20:00,75.8,52.9,29.98,WSW,251,1.0,5.0,45,0.00,,,0.00,612,Wunderground v.1.15,2013-10-07 20:20:00,
2013-10-07 16:30:00,76.1,53.8,29.98,WSW,251,1.0,5.0,46,0.00,,,0.00,538,Wunderground v.1.15,2013-10-07 20:30:00,
2013-10-07 16:40:00,76.0,54.9,29.98,NW,326,1.0,5.0,48,0.00,,,0.00,355,Wunderground v.1.15,2013-10-07 20:40:00,
2013-10-07 16:50:00,75.4,53.2,29.98,NNE,29,1.0,5.0,46,0.00,,,0.00,510,Wunderground v.1.15,2013-10-07 20:50:00,
2013-10-07 16:55:00,75.2,52.4,29.98,NW,322,1.0,5.0,45,0.00,,,0.00,195,Wunderground v.1.15,2013-10-07 20:55:00,
2013-10-07 17:05:00,75.3,53.1,29.98,West,279,1.0,5.0,46,0.00,,,0.00,359,Wunderground v.1.15,2013-10-07 21:05:00,
2013-10-07 17:15:00,74.9,53.3,29.98,WNW,293,1.0,5.0,47,0.00,,,0.00,69,Wunderground v.1.15,2013-10-07 21:15:00,
2013-10-07 17:20:00,74.4,52.9,29.98,West,263,2.0,2.0,47,0.00,,,0.00,95,Wunderground v.1.15,2013-10-07 21:20:00,
2013-10-07 17:25:00,74.3,53.9,29.98,South,172,2.0,5.0,49,0.00,,,0.00,125,Wunderground v.1.15,2013-10-07 21:25:00,
2013-10-07 17:35:00,74.5,53.5,29.98,NW,317,1.0,5.0,48,0.00,,,0.00,120,Wunderground v.1.15,2013-10-07 21:35:00,
2013-10-07 17:45:00,74.5,55.2,29.98,NNW,337,0.0,5.0,51,0.00,,,0.00,62,Wunderground v.1.15,2013-10-07 21:45:00,
2013-10-07 17:55:00,74.5,55.7,29.98,NNW,327,0.0,5.0,52,0.00,,,0.00,323,Wunderground v.1.15,2013-10-07 21:55:00,
2013-10-07 18:00:00,74.8,54.9,29.98,NNW,341,0.0,5.0,50,0.00,,,0.00,306,Wunderground v.1.15,2013-10-07 22:00:00,
2013-10-07 18:10:00,75.3,54.8,29.98,NW,318,0.0,5.0,49,0.00,,,0.00,123,Wunderground v.1.15,2013-10-07 22:10:00,
2013-10-07 18:20:00,74.0,55.3,29.97,ENE,70,0.0,5.0,52,0.00,,,0.00,30,Wunderground v.1.15,2013-10-07 22:20:00,
2013-10-07 18:30:00,73.1,54.9,29.98,West,277,0.0,5.0,53,0.00,,,0.00,26,Wunderground v.1.15,2013-10-07 22:30:00,
2013-10-07 18:35:00,72.7,56.6,29.98,West,278,0.0,5.0,57,0.00,,,0.00,28,Wunderground v.1.15,2013-10-07 22:35:00,
2013-10-07 18:40:00,72.4,54.8,29.98,WNW,291,0.0,5.0,54,0.00,,,0.00,23,Wunderground v.1.15,2013-10-07 22:40:00,
2013-10-07 18:50:00,71.7,55.2,29.98,NNE,23,0.0,5.0,56,0.00,,,0.00,21,Wunderground v.1.15,2013-10-07 22:50:00,
2013-10-07 19:00:00,71.3,56.2,29.98,North,355,0.0,0.0,59,0.00,,,0.00,18,Wunderground v.1.15,2013-10-07 23:00:00,
2013-10-07 19:10:00,70.7,55.7,29.98,NW,318,0.0,5.0,59,0.00,,,0.00,14,Wunderground v.1.15,2013-10-07 23:10:00,
2013-10-07 19:20:00,70.1,56.0,29.98,NW,318,0.0,5.0,61,0.00,,,0.00,11,Wunderground v.1.15,2013-10-07 23:20:00,
2013-10-07 19:30:00,69.5,55.9,29.99,East,80,0.0,5.0,62,0.00,,,0.00,7,Wunderground v.1.15,2013-10-07 23:30:00,
2013-10-07 19:40:00,68.7,58.5,29.99,East,80,0.0,5.0,70,0.00,,,0.00,0,Wunderground v.1.15,2013-10-07 23:40:00,
2013-10-07 19:50:00,67.9,56.5,29.99,East,80,0.0,5.0,67,0.00,,,0.00,0,Wunderground v.1.15,2013-10-07 23:50:00,
2013-10-07 19:55:00,67.7,56.8,29.99,East,80,0.0,5.0,68,0.00,,,0.00,0,Wunderground v.1.15,2013-10-07 23:55:00,
2013-10-07 20:05:00,67.0,57.7,29.99,East,80,0.0,5.0,72,0.00,,,0.00,0,Wunderground v.1.15,2013-10-08 00:05:00,
2013-10-07 20:15:00,66.2,57.3,29.99,East,80,0.0,5.0,73,0.00,,,0.00,0,Wunderground v.1.15,2013-10-08 00:15:00,
2013-10-07 20:25:00,65.6,57.5,29.99,East,80,0.0,5.0,75,0.00,,,0.00,0,Wunderground v.1.15,2013-10-08 00:25:00,
2013-10-07 20:30:00,65.4,57.6,29.99,East,80,0.0,5.0,76,0.00,,,0.00,0,Wunderground v.1.15,2013-10-08 00:30:00,
2013-10-07 20:40:00,64.8,57.1,30.00,East,80,0.0,5.0,76,0.00,,,0.00,0,Wunderground v.1.15,2013-10-08 00:40:00,
2013-10-07 20:45:00,64.5,57.1,30.00,East,80,0.0,5.0,77,0.00,,,0.00,0,Wunderground v.1.15,2013-10-08 00:45:00,
2013-10-07 20:55:00,64.0,57.7,30.00,East,80,0.0,5.0,80,0.00,,,0.00,0,Wunderground v.1.15,2013-10-08 00:55:00,
2013-10-07 21:05:00,63.5,57.2,30.00,East,80,0.0,5.0,80,0.00,,,0.00,0,Wunderground v.1.15,2013-10-08 01:05:00,
2013-10-07 21:10:00,63.3,57.0,30.01,East,80,0.0,5.0,80,0.00,,,0.00,0,Wunderground v.1.15,2013-10-08 01:10:00,
2013-10-07 21:15:00,63.1,57.5,30.01,East,80,0.0,5.0,82,0.00,,,0.00,0,Wunderground v.1.15,2013-10-08 01:15:00,
2013-10-07 21:20:00,62.8,56.9,30.01,East,80,0.0,5.0,81,0.00,,,0.00,0,Wunderground v.1.15,2013-10-08 01:20:00,
2013-10-07 21:30:00,62.4,56.8,30.02,East,80,0.0,5.0,82,0.00,,,0.00,0,Wunderground v.1.15,2013-10-08 01:30:00,
2013-10-07 21:35:00,62.2,56.6,30.02,East,80,0.0,5.0,82,0.00,,,0.00,0,Wunderground v.1.15,2013-10-08 01:35:00,
2013-10-07 21:40:00,62.0,56.8,30.02,East,80,0.0,5.0,83,0.00,,,0.00,0,Wunderground v.1.15,2013-10-08 01:40:00,
2013-10-07 21:50:00,61.6,56.7,30.02,East,80,0.0,5.0,84,0.00,,,0.00,0,Wunderground v.1.15,2013-10-08 01:50:00,
2013-10-07 21:55:00,61.3,56.1,30.02,East,80,0.0,5.0,83,0.00,,,0.00,0,Wunderground v.1.15,2013-10-08 01:55:00,
2013-10-07 22:05:00,61.0,56.5,30.03,East,80,0.0,5.0,85,0.00,,,0.00,0,Wunderground v.1.15,2013-10-08 02:05:00,
2013-10-07 22:15:00,60.7,56.2,30.03,East,80,0.0,5.0,85,0.00,,,0.00,0,Wunderground v.1.15,2013-10-08 02:15:00,
2013-10-07 22:25:00,60.5,56.3,30.03,East,80,0.0,5.0,86,0.00,,,0.00,0,Wunderground v.1.15,2013-10-08 02:25:00,
2013-10-07 22:35:00,60.2,56.0,30.04,East,80,0.0,5.0,86,0.00,,,0.00,0,Wunderground v.1.15,2013-10-08 02:35:00,
2013-10-07 22:40:00,60.0,56.1,30.04,East,80,0.0,5.0,87,0.00,,,0.00,0,Wunderground v.1.15,2013-10-08 02:40:00,
2013-10-07 22:50:00,59.8,55.9,30.04,East,80,0.0,5.0,87,0.00,,,0.00,0,Wunderground v.1.15,2013-10-08 02:50:00,
2013-10-07 22:55:00,59.6,56.0,30.04,East,80,0.0,5.0,88,0.00,,,0.00,0,Wunderground v.1.15,2013-10-08 02:55:00,
2013-10-07 23:05:00,59.4,55.8,30.04,East,80,0.0,5.0,88,0.00,,,0.00,0,Wunderground v.1.15,2013-10-08 03:05:00,
2013-10-07 23:15:00,59.1,55.5,30.04,East,80,0.0,5.0,88,0.00,,,0.00,0,Wunderground v.1.15,2013-10-08 03:15:00,
2013-10-07 23:25:00,59.0,55.8,30.05,East,80,0.0,5.0,89,0.00,,,0.00,0,Wunderground v.1.15,2013-10-08 03:25:00,
2013-10-07 23:30:00,59.0,55.8,30.05,East,80,0.0,5.0,89,0.00,,,0.00,0,Wunderground v.1.15,2013-10-08 03:30:00,
2013-10-07 23:35:00,58.9,55.7,30.05,East,80,0.0,5.0,89,0.00,,,0.00,0,Wunderground v.1.15,2013-10-08 03:35:00,
2013-10-07 23:40:00,58.9,55.7,30.05,East,80,0.0,5.0,89,0.00,,,0.00,0,Wunderground v.1.15,2013-10-08 03:40:00,
2013-10-07 23:50:00,58.8,55.6,30.05,East,80,0.0,5.0,89,0.00,,,0.00,0,Wunderground v.1.15,2013-10-08 03:50:00,
2013-10-07 23:55:00,58.7,55.8,30.05,East,80,0.0,5.0,90,0.00,,,0.00,0,Wunderground v.1.15,2013-10-08 03:55:00,